Home > Weather > Bretten > Past weeks

Flag for Germany Past Weather in Bretten, Baden-Württemberg, Germany — Yesterday and Last 2 Weeks

Now
70 °F

Passing clouds.


Feels Like: 70 °F
Forecast: 51 / 70 °F
Wind: 8 mph from Southwest

Location: Mannheim City

Current Time: Jun 26, 2016 at 11:05:37 PM

Latest Report: Jun 26, 2016 at 7:50 PM


Visibility: N/A

Pressure: 30.07 "Hg

Humidity: 50%

Dew Point: 50 °F

Location of BrettenLocation

Past Weather in Bretten — Graph

°F

Bretten Temperature Yesterday

Maximum temperature yesterday: 79 °F (at 3:20 PM)
Minimum temperature yesterday: 66 °F (at 7:20 AM)
Average temperature yesterday: 70 °F

High & Low Weather Summary for the Past Weeks

 TemperatureHumidityPressure
High93 °F (Jun 23, 5:50 PM)100% (Jun 12, 7:50 AM)30.24 "Hg (Jun 12, 7:50 AM)
Low52 °F (Jun 20, 5:20 AM)32% (Jun 23, 7:20 PM)29.53 "Hg (Jun 14, 2:20 PM)
Average68 °F73%29.92 "Hg
* Reported Jun 11 7:20 PM — Jun 26 7:50 PM, Bretten, Weather by CustomWeather, © 2016

Note: Actual official high and low records may vary slightly from our data, if they occured in-between our weather recording intervals... More about our weather records

Advertising

Bretten Weather History for the Previous 24 Hours

Scroll right to see more
 ConditionsComfort  
Time TempWeatherWind HumidityBarometerVisibility
7:50 PM
Sun, Jun 26
70 °FPassing clouds.8 mph50%30.07 "HgN/A
7:20 PM72 °FPassing clouds.6 mph44%30.07 "HgN/A
6:50 PM72 °FPassing clouds.7 mph44%30.07 "HgN/A
6:20 PM72 °FPassing clouds.7 mph41%30.07 "HgN/A
5:50 PM73 °FPassing clouds.7 mph41%30.07 "HgN/A
5:20 PM72 °FPassing clouds.8 mph41%30.07 "HgN/A
4:50 PM72 °FPassing clouds.7 mph44%30.07 "HgN/A
4:20 PM72 °FPassing clouds.8 mph44%30.07 "HgN/A
3:50 PM72 °FPassing clouds.6 mph38%30.07 "HgN/A
3:20 PM72 °FSunny.3 mph44%30.07 "Hg10 mi
2:50 PM70 °FPassing clouds.5 mph46%30.07 "HgN/A
2:20 PM70 °FSunny.7 mph46%30.07 "Hg10 mi
1:50 PM70 °FBroken clouds.6 mph50%30.07 "HgN/A
1:20 PM70 °FPassing clouds.5 mph53%30.07 "HgN/A
12:50 PM68 °FScattered clouds.7 mph53%30.09 "HgN/A
12:20 PM68 °FPassing clouds.7 mph56%30.09 "HgN/A
11:50 AM66 °FPartly sunny.7 mph56%30.09 "HgN/A
11:20 AM66 °FScattered clouds.5 mph56%30.09 "HgN/A
10:50 AM66 °FPartly sunny.6 mph56%30.09 "HgN/A
10:20 AM66 °FPartly sunny.6 mph68%30.09 "HgN/A
9:50 AM64 °FPassing clouds.7 mph64%30.09 "HgN/A
9:20 AM64 °FPassing clouds.5 mph73%30.09 "HgN/A
8:50 AM63 °FPassing clouds.5 mph83%30.09 "HgN/A
8:20 AM63 °FPassing clouds.5 mph83%30.09 "HgN/A
7:50 AM59 °FPassing clouds.6 mph94%30.09 "HgN/A
Weather by CustomWeather, © 2016

See weather overviewHow to use our weather pages